Wind_Speed
22 22 23 26 28 29 30 29 29 32 33 27 21 16 13 9 3 10 14 13 18 15 15 17 19 24 27 33 41 35 36 45 41 32 28 27 30 31 36 39 37 39 40
20 22 23 23 24 28 31 33 33 36 35 34 27 24 21 19 17 6 5 5 12 12 12 15 17 21 28 32 25 25 42 48 36 30 29 24 27 31 26 23 23 26 30
19 22 24 26 26 27 28 31 32 34 39 41 40 38 36 32 27 21 14 8 8 5 4 5 8 12 17 28 31 39 38 34 33 35 34 22 22 24 24 25 24 25 24
17 19 23 26 27 29 30 30 30 32 37 42 43 44 44 43 41 31 26 25 21 18 19 15 9 3 7 10 15 24 31 38 39 34 25 18 25 32 29 24 23 25 26
14 16 20 22 23 26 28 31 29 32 35 40 39 39 42 44 42 41 41 37 37 36 35 33 33 31 23 15 6 17 16 15 23 26 20 10 17 21 24 23 26 27 30
14 15 16 18 20 23 26 29 32 32 34 35 41 42 40 38 36 36 39 39 34 35 37 34 32 33 33 33 32 28 16 9 12 14 11 14 7 3 13 16 16 20 18
13 15 17 18 19 21 21 23 27 32 33 35 37 39 39 37 35 36 35 36 36 33 32 31 30 30 29 29 31 31 32 31 29 25 21 17 11 8 4 7 5 9 15
12 14 16 18 19 20 21 22 24 26 31 34 36 36 37 37 33 34 34 36 37 37 36 35 36 34 29 23 27 29 30 29 28 24 20 19 15 11 9 8 5 5 3
12 14 15 17 18 20 22 22 21 22 25 30 32 35 37 38 36 33 30 31 35 37 36 36 35 32 28 25 26 26 28 27 24 22 19 16 14 13 9 6 3 3 3
12 14 14 15 16 18 19 20 20 19 20 21 27 32 34 35 34 34 32 30 33 34 35 35 35 33 30 29 27 26 24 25 21 17 15 15 14 12 11 10 8 7 7
9 10 13 14 15 16 17 18 19 20 19 21 21 22 25 31 33 34 34 34 33 31 33 34 33 30 29 29 29 30 28 22 20 18 17 16 15 14 14 13 11 9 8
7 10 11 12 12 12 14 16 18 18 19 19 19 20 22 24 28 31 32 32 31 32 32 30 28 26 25 25 26 24 20 18 18 17 17 19 19 19 16 13 12 11 9
7 8 10 11 12 11 13 14 15 16 17 18 19 20 20 22 23 25 27 32 31 29 27 24 23 24 24 26 25 22 22 22 22 21 21 20 20 19 17 15 14 11 9
6 7 8 10 11 12 11 12 14 16 15 17 18 19 19 21 23 23 22 24 26 24 22 23 23 24 26 26 26 27 26 25 23 23 22 20 18 18 18 18 17 16 13
5 6 7 8 9 9 12 14 12 15 15 14 14 15 17 18 21 21 22 22 26 24 20 20 22 23 23 24 24 26 27 26 25 23 21 20 19 19 18 17 16 16 14
4 5 6 7 7 7 7 7 13 13 13 14 13 13 12 13 15 18 19 21 26 26 20 22 22 21 21 21 22 22 23 24 24 22 21 21 20 19 18 17 15 15 15
4 5 7 7 7 7 7 7 7 10 15 15 13 13 14 14 14 15 16 13 18 16 17 18 18 18 18 17 17 17 18 19 19 19 19 20 20 18 17 15 15 15 16
5 6 7 8 7 7 7 7 7 8 9 9 13 14 14 15 15 16 16 12 13 14 14 14 14 15 15 16 17 16 17 18 19 19 20 20 20 19 19 17 17 18 18
4 7 8 8 8 8 6 6 7 8 9 10 11 13 17 17 15 15 15 14 14 14 15 14 14 13 14 14 14 15 16 18 19 20 20 20 20 20 18 18 18 18 19
5 8 9 8 7 6 6 6 7 7 8 10 11 14 20 18 16 16 15 15 15 15 16 16 15 15 14 14 15 15 16 17 18 18 19 19 19 19 18 18 18 19 19
5 8 9 7 7 7 7 8 9 9 10 10 11 15 18 16 14 15 15 15 16 16 16 16 16 15 16 15 14 15 15 16 16 16 17 18 19 20 19 18 18 18 19
7 8 8 8 7 9 9 10 10 10 10 11 12 13 18 13 14 14 14 15 16 16 16 18 18 17 16 16 16 15 15 15 15 15 16 18 19 19 19 19 19 20 20
8 8 8 8 9 10 11 11 11 11 11 12 14 14 15 15 14 13 15 16 16 17 16 18 18 18 17 16 17 14 15 14 13 16 21 23 21 20 20 20 19 19 18
9 9 8 9 9 10 11 11 11 13 13 13 14 15 15 15 14 14 15 16 17 17 18 18 18 18 18 18 16 14 12 13 12 14 20 22 19 20 21 20 20 20 21
9 9 9 10 10 11 11 10 11 11 12 13 14 14 14 15 14 14 16 17 18 18 18 17 16 17 17 17 13 11 11 13 14 17 19 18 18 20 20 20 20 21 19
9 9 9 10 10 11 11 11 11 12 14 14 15 15 15 15 15 16 17 17 18 18 17 17 16 15 15 13 9 6 7 11 15 19 21 18 17 19 18 18 18 18 17
Wind_Direction
19 17 17 19 26 24 26 29 33 36 29 26 25 26 32 47 98 235 234 235 225 237 227 229 242 240 233 232 229 235 241 242 253 233 223 229 229 227 227 232 230 234 235
25 27 26 22 26 32 34 36 42 47 42 39 44 49 54 52 70 113 201 215 221 235 233 226 220 226 230 231 227 235 238 242 259 247 232 218 226 226 227 221 220 222 231
34 34 34 33 30 35 36 37 37 46 49 52 54 56 58 59 67 77 90 100 109 113 105 204 217 219 233 241 243 242 244 238 247 253 253 214 218 212 219 220 218 223 228
30 32 38 38 36 38 39 40 37 39 45 52 56 59 60 64 66 69 80 87 87 90 90 90 91 183 233 224 208 223 230 232 238 244 250 214 213 218 210 205 207 210 209
26 24 23 30 36 38 43 47 46 49 48 51 52 56 60 60 66 72 70 69 74 74 76 79 76 79 75 80 146 200 198 207 211 220 236 236 186 207 204 201 204 208 215
31 27 26 26 27 30 32 37 44 47 53 53 54 52 52 54 61 65 73 74 72 69 66 66 68 73 74 76 75 82 105 156 188 216 203 227 218 191 199 219 223 216 221
35 31 29 30 31 33 33 31 35 42 47 52 52 51 51 54 55 58 62 67 71 69 64 63 59 58 60 60 62 75 82 81 84 90 93 97 85 85 105 189 229 229 243
46 38 37 34 35 36 38 36 36 39 45 47 51 54 52 53 55 57 53 59 62 65 66 61 59 56 52 51 55 57 62 64 64 68 74 76 71 66 51 54 29 353 268
42 42 40 39 39 39 41 41 38 41 42 47 49 49 50 49 51 54 52 52 57 57 57 56 55 56 54 55 55 58 58 57 55 50 47 48 50 46 46 52 59 74 318
41 39 38 37 40 43 38 39 40 42 42 41 45 50 50 49 48 48 52 51 52 51 51 49 47 43 42 45 50 54 53 46 43 43 40 39 34 32 28 32 30 28 3
47 39 36 40 35 34 37 36 36 37 39 39 39 37 39 41 46 45 45 47 49 48 48 45 40 34 34 34 37 41 39 33 30 30 26 28 26 30 26 26 25 23 14
49 42 42 39 41 35 29 25 28 32 31 35 37 36 31 29 28 39 45 46 44 43 42 41 40 38 37 36 37 36 32 32 32 28 25 21 15 12 14 17 9 6 359
54 47 43 42 42 39 33 33 27 25 28 28 30 29 26 23 22 24 25 35 36 42 43 38 36 35 35 36 37 34 31 30 27 22 21 19 13 6 359 359 356 353 356
64 47 46 43 45 42 42 36 35 32 29 29 25 26 21 18 19 18 21 21 26 30 32 32 34 32 32 34 32 32 33 32 29 24 19 12 7 3 0 357 352 349 352
65 52 45 42 43 38 35 46 43 37 39 35 33 22 22 17 11 9 13 14 19 26 27 26 28 26 24 25 27 28 28 26 24 21 17 12 7 2 357 354 350 346 342
71 52 49 36 34 33 34 22 14 29 26 26 29 31 19 10 6 1 5 6 17 29 16 19 19 21 21 18 17 17 18 20 20 16 12 8 4 359 352 350 346 341 335
77 46 26 27 17 15 15 11 7 356 359 357 5 7 6 2 2 358 1 17 5 22 16 13 11 10 9 9 13 15 14 12 11 12 7 4 359 356 353 346 340 335 329
40 23 16 9 5 360 358 355 353 351 351 350 344 348 356 356 360 359 1 14 6 8 8 5 1 359 359 0 358 1 4 4 7 9 5 3 357 353 348 341 337 332 327
12 358 358 353 350 354 354 349 346 348 346 344 340 339 349 358 357 358 6 8 4 0 357 355 352 348 345 346 348 352 357 355 359 1 358 357 355 351 343 336 331 327 325
343 345 346 346 347 356 355 351 347 344 340 342 342 337 346 353 354 354 356 356 356 352 348 346 343 339 336 335 336 340 342 344 346 350 351 351 349 347 338 330 327 322 320
327 328 336 339 341 345 345 344 341 341 342 342 341 333 343 347 344 347 348 346 344 341 337 333 331 330 331 328 320 320 326 330 334 338 342 344 345 343 335 329 322 316 310
321 324 326 329 330 332 335 334 335 339 338 336 335 333 340 346 343 343 338 337 335 332 328 323 322 321 318 316 317 309 304 311 319 324 333 339 339 337 330 325 321 317 314
317 320 320 322 326 330 332 332 332 334 331 331 333 335 339 337 336 335 332 329 328 325 322 320 317 313 310 306 300 306 299 295 302 315 325 331 333 331 329 322 317 313 308
316 317 317 321 325 322 326 328 331 329 329 331 333 334 333 332 333 328 325 323 324 324 324 320 317 313 309 308 300 294 292 281 291 309 318 325 327 325 322 320 316 314 313
316 319 318 315 316 320 324 326 325 326 330 333 332 330 329 328 326 323 322 325 326 327 326 323 321 316 313 310 304 302 291 264 294 309 318 319 318 320 317 314 312 313 312
312 310 310 315 319 321 324 326 326 329 333 332 330 329 327 326 324 324 326 328 328 328 327 326 323 318 314 311 303 292 271 296 308 314 316 317 313 312 309 307 309 310 310
Height
1481 1476 1470 1464 1456 1449 1442 1433 1423 1413 1404 1395 1386 1379 1371 1364 1361 1362 1363 1364 1365 1364 1367 1373 1378 1382 1384 1386 1388 1390 1393 1400 1397 1405 1409 1412 1416 1421 1424 1427 1431 1435 1440
1483 1478 1472 1465 1459 1451 1445 1437 1427 1415 1409 1401 1392 1381 1371 1364 1361 1360 1361 1361 1361 1363 1365 1367 1370 1374 1377 1379 1381 1382 1388 1393 1382 1398 1404 1403 1409 1415 1418 1420 1424 1428 1432
1484 1479 1474 1467 1461 1453 1447 1440 1433 1424 1414 1406 1396 1384 1374 1373 1368 1361 1364 1364 1364 1365 1365 1365 1367 1369 1372 1374 1377 1378 1382 1382 1388 1389 1393 1393 1401 1408 1412 1415 1418 1423 1426
1484 1481 1476 1469 1463 1457 1451 1444 1437 1430 1420 1409 1400 1390 1386 1381 1374 1375 1372 1368 1369 1370 1370 1369 1368 1369 1371 1370 1371 1374 1376 1378 1379 1381 1390 1380 1391 1399 1405 1408 1411 1414 1417
1487 1483 1478 1473 1467 1462 1456 1449 1443 1435 1427 1419 1410 1403 1397 1392 1390 1385 1381 1380 1379 1378 1376 1374 1374 1373 1372 1372 1372 1369 1368 1369 1370 1377 1380 1385 1384 1393 1398 1402 1404 1408 1410
1488 1485 1481 1477 1471 1464 1460 1454 1447 1439 1433 1427 1420 1414 1410 1404 1400 1396 1390 1388 1388 1386 1385 1387 1386 1382 1384 1378 1380 1367 1366 1369 1368 1372 1380 1381 1391 1389 1390 1395 1398 1400 1405
1489 1486 1482 1478 1473 1468 1464 1460 1453 1445 1439 1433 1429 1423 1418 1413 1412 1406 1402 1396 1392 1393 1393 1393 1392 1390 1386 1387 1379 1374 1373 1376 1377 1380 1383 1388 1392 1393 1392 1388 1395 1398 1399
1489 1487 1483 1480 1476 1471 1467 1463 1459 1453 1447 1441 1437 1433 1430 1424 1420 1417 1414 1407 1403 1401 1400 1401 1398 1393 1393 1395 1387 1383 1380 1383 1380 1385 1391 1391 1395 1393 1391 1391 1396 1397 1402
1490 1487 1484 1480 1477 1474 1469 1466 1464 1459 1454 1449 1445 1441 1436 1432 1428 1424 1420 1418 1413 1410 1407 1405 1402 1402 1403 1399 1389 1393 1388 1393 1396 1395 1398 1397 1391 1393 1395 1395 1397 1398 1399
1491 1488 1485 1482 1479 1475 1473 1469 1467 1464 1461 1457 1451 1446 1442 1439 1438 1434 1429 1424 1420 1415 1413 1410 1410 1409 1406 1401 1399 1395 1394 1397 1399 1401 1401 1396 1398 1398 1398 1397 1395 1393 1394
1493 1491 1487 1484 1482 1479 1476 1474 1470 1467 1464 1461 1459 1456 1452 1448 1444 1438 1434 1429 1425 1423 1420 1415 1413 1412 1407 1403 1400 1394 1397 1399 1401 1402 1402 1398 1401 1398 1399 1399 1398 1396 1396
1494 1492 1489 1487 1485 1483 1480 1478 1474 1471 1469 1466 1464 1461 1457 1454 1448 1443 1440 1435 1430 1426 1422 1421 1420 1418 1415 1411 1405 1404 1406 1405 1405 1405 1402 1400 1400 1402 1401 1400 1400 1398 1397
1495 1494 1491 1489 1487 1485 1483 1480 1478 1475 1471 1468 1465 1463 1460 1457 1452 1447 1441 1436 1433 1430 1429 1427 1423 1419 1418 1413 1411 1411 1409 1408 1406 1405 1402 1400 1401 1402 1403 1400 1399 1399 1396
1496 1494 1493 1490 1489 1487 1485 1483 1480 1477 1475 1471 1468 1465 1463 1459 1455 1451 1448 1444 1440 1437 1434 1430 1428 1426 1420 1419 1418 1414 1413 1413 1410 1408 1406 1405 1403 1403 1400 1401 1401 1400 1396
1497 1495 1494 1492 1490 1489 1485 1483 1482 1478 1476 1474 1472 1469 1466 1463 1459 1455 1450 1446 1442 1438 1436 1433 1430 1427 1426 1424 1421 1418 1416 1415 1412 1410 1409 1407 1404 1402 1401 1405 1404 1401 1399
1498 1496 1494 1493 1491 1489 1488 1487 1482 1480 1478 1475 1473 1470 1469 1465 1463 1458 1452 1447 1443 1439 1439 1435 1433 1433 1431 1428 1425 1422 1418 1416 1414 1414 1412 1408 1406 1405 1403 1403 1403 1403 1400
1496 1495 1494 1493 1491 1489 1487 1487 1486 1483 1479 1476 1473 1470 1468 1465 1462 1458 1454 1452 1448 1446 1444 1441 1439 1437 1436 1435 1431 1428 1426 1423 1419 1417 1414 1410 1408 1406 1405 1405 1405 1403 1400
1495 1495 1493 1492 1490 1489 1487 1486 1485 1483 1482 1480 1475 1470 1467 1463 1460 1457 1454 1453 1451 1448 1447 1446 1444 1442 1439 1435 1432 1429 1427 1423 1420 1417 1414 1411 1409 1405 1403 1403 1401 1398 1396
1494 1493 1492 1490 1488 1487 1486 1485 1484 1482 1480 1477 1474 1470 1465 1462 1459 1457 1454 1451 1449 1448 1445 1444 1442 1441 1439 1436 1433 1430 1427 1424 1420 1417 1415 1413 1409 1406 1405 1403 1400 1398 1396
1493 1491 1490 1489 1487 1486 1485 1483 1482 1480 1478 1475 1472 1467 1462 1459 1457 1455 1453 1449 1446 1444 1442 1440 1438 1437 1435 1434 1431 1429 1426 1424 1421 1419 1417 1414 1410 1409 1407 1404 1400 1397 1394
1491 1490 1488 1487 1485 1483 1482 1480 1478 1476 1474 1471 1468 1463 1460 1457 1456 1453 1450 1446 1444 1441 1439 1437 1435 1434 1432 1430 1429 1427 1425 1423 1422 1420 1417 1413 1410 1407 1405 1402 1399 1397 1396
1489 1487 1485 1484 1482 1480 1478 1476 1475 1473 1471 1468 1465 1462 1457 1455 1452 1450 1447 1443 1440 1439 1436 1433 1430 1429 1429 1427 1426 1425 1424 1423 1421 1418 1415 1411 1409 1407 1404 1400 1397 1393 1390
1486 1484 1482 1481 1479 1477 1475 1473 1471 1469 1467 1464 1461 1458 1454 1452 1449 1447 1443 1440 1438 1436 1433 1430 1428 1426 1424 1423 1421 1421 1420 1420 1418 1414 1411 1409 1406 1404 1401 1398 1395 1392 1390
1483 1481 1480 1478 1476 1475 1473 1471 1468 1466 1464 1461 1458 1455 1452 1449 1447 1444 1441 1438 1435 1432 1429 1427 1424 1422 1420 1418 1416 1416 1416 1416 1414 1412 1409 1406 1404 1401 1397 1394 1390 1387 1384
1480 1478 1477 1475 1474 1472 1470 1468 1466 1464 1461 1457 1455 1452 1450 1447 1444 1441 1438 1434 1431 1429 1426 1424 1421 1419 1416 1414 1412 1412 1412 1411 1411 1409 1406 1404 1402 1398 1395 1391 1387 1383 1381
1477 1476 1474 1473 1471 1469 1467 1465 1463 1460 1457 1454 1452 1449 1446 1443 1440 1436 1433 1431 1428 1426 1423 1420 1417 1415 1412 1410 1410 1410 1409 1409 1407 1405 1403 1400 1398 1395 1392 1389 1385 1382 1379